Prairie Du Chien, WI

5:22 AM CDT on March 26, 2017 (GMT -0500)
Prairie Du Chien Municipal

Weather History for KPDC - April, 2014

Change the Weather History Date:

Friday, April 25, 2014

  Actual Average Record
Temperature  
Mean Temperature 52 °F -  
Max Temperature 68 °F 67 °F 86 °F (1986)
Min Temperature 36 °F 40 °F 26 °F (1967)
Degree Days  
Heating Degree Days 14    
Growing Degree Days 2 (Base 50)    
Moisture  
Dew Point 37 °F    
Average Humidity 63    
Maximum Humidity 97    
Minimum Humidity 23    
Precipitation  
Precipitation 0.03 in - - ()
Sea Level Pressure  
Sea Level Pressure 29.80 in    
Wind  
Wind Speed 5 mph (West)    
Max Wind Speed 20 mph    
Max Gust Speed 28 mph    
Visibility 8 miles    
Events      
Averages and records for this station are not official NWS values.
T = Trace of Precipitation, MM = Missing Value Source: NWS Daily Summary

Daily Weather History Graph

Daily Weather History Graph

Search for Another Location

Airport or City:

Trip Planner

Search our weather history database for the weather conditions in past years. The results will help you decide how hot, cold, wet, or windy it might be!

Date:

Astronomy

Apr. 25, 2014 Rise Set
Actual Time 6:06 AM CDT 7:58 PM CDT
Civil Twilight 5:36 AM CDT 8:29 PM CDT
Nautical Twilight 4:59 AM CDT 9:06 PM CDT
Astronomical Twilight 4:19 AM CDT 9:46 PM CDT
Moon 4:01 AM CDT (4/25) 4:15 PM CDT (4/25)
Length of Visible Light 14h 52m
Length of Day
13h 51m
Waning Crescent, 15% of the Moon is Illuminated
Apr 25
Waning Crescent
Apr 29
New
May 6
First Quarter
May 14
Full
May 21
Last Quarter

Hourly Weather History & Observations

Time (CDT) Temp. Windchill Dew Point Humidity Pressure Visibility Wind Dir Wind Speed Gust Speed Precip Events Conditions
12:15 AM 45.9 °F 42.9 °F 40.8 °F 83% 29.73 in 10.0 mi NW 5.8 mph - N/A   Mostly Cloudy
12:35 AM 45.9 °F 41.2 °F 40.8 °F 83% 29.73 in 10.0 mi WNW 9.2 mph - N/A   Overcast
12:55 AM 45.7 °F 41.5 °F 40.6 °F 83% 29.73 in 10.0 mi NW 8.1 mph - N/A   Overcast
1:15 AM 45.0 °F 41.8 °F 40.5 °F 84% 29.73 in 10.0 mi WNW 5.8 mph - N/A   Mostly Cloudy
1:35 AM 44.1 °F 41.5 °F 40.3 °F 87% 29.73 in 10.0 mi West 4.6 mph - N/A   Clear
1:55 AM 43.7 °F 41.1 °F 40.3 °F 88% 29.74 in 10.0 mi West 4.6 mph - N/A   Clear
2:15 AM 43.0 °F - 40.1 °F 90% 29.74 in 10.0 mi Calm Calm - N/A   Clear
2:35 AM 41.2 °F 39.2 °F 39.0 °F 92% 29.74 in 7.0 mi West 3.5 mph - N/A   Clear
2:55 AM 41.2 °F - 39.2 °F 93% 29.74 in 7.0 mi Calm Calm - N/A   Clear
3:15 AM 39.7 °F 37.6 °F 37.9 °F 93% 29.74 in 5.0 mi WSW 3.5 mph - N/A   Clear
3:35 AM 39.7 °F - 38.3 °F 95% 29.76 in 5.0 mi Calm Calm - N/A   Clear
3:55 AM 39.2 °F - 37.8 °F 95% 29.76 in 2.0 mi Calm Calm - N/A   Clear
4:15 AM 39.0 °F - 37.8 °F 95% 29.76 in 1.8 mi Calm Calm - N/A   Mist
4:35 AM 37.8 °F - 36.7 °F 96% 29.77 in 1.2 mi Calm Calm - N/A   Mist
4:55 AM 37.0 °F - 36.0 °F 96% 29.78 in 1.8 mi Calm Calm - N/A   Mist
5:15 AM 36.1 °F - 35.1 °F 96% 29.78 in 2.0 mi Calm Calm - N/A   Clear
5:35 AM 36.0 °F - 35.1 °F 97% 29.79 in 2.0 mi Calm Calm - N/A   Clear
5:55 AM 36.0 °F - 35.1 °F 97% 29.79 in 2.5 mi Calm Calm - N/A   Clear
6:15 AM 37.6 °F - 36.5 °F 96% 29.79 in 5.0 mi Calm Calm - N/A   Clear
6:35 AM 36.0 °F - 34.9 °F 96% 29.80 in 1.8 mi Calm Calm - N/A   Mist
6:55 AM 36.3 °F - 35.2 °F 96% 29.81 in 2.5 mi Calm Calm - N/A   Clear
7:15 AM 37.0 °F - 36.0 °F 96% 29.81 in 3.0 mi Calm Calm - N/A   Clear
7:35 AM 39.4 °F - 37.9 °F 95% 29.81 in 5.0 mi Calm Calm - N/A   Clear
7:55 AM 41.4 °F - 39.4 °F 93% 29.82 in 7.0 mi Calm Calm - N/A   Clear
8:15 AM 43.0 °F - 40.1 °F 90% 29.81 in 10.0 mi Calm Calm - N/A   Clear
8:35 AM 44.8 °F - 41.5 °F 88% 29.81 in 10.0 mi Calm Calm - N/A   Clear
8:55 AM 46.6 °F - 42.3 °F 85% 29.81 in 10.0 mi Calm Calm - N/A   Clear
9:15 AM 48.4 °F - 43.2 °F 82% 29.81 in 10.0 mi Calm Calm - N/A   Clear
9:35 AM 49.6 °F - 43.7 °F 80% 29.81 in 10.0 mi Calm Calm - N/A   Clear
9:55 AM 50.9 °F - 44.2 °F 78% 29.81 in 10.0 mi Calm Calm - N/A   Clear
10:15 AM 53.8 °F - 45.7 °F 74% 29.81 in 10.0 mi Calm Calm - N/A   Clear
10:35 AM 55.4 °F - 45.3 °F 69% 29.81 in 10.0 mi WSW 3.5 mph - N/A   Clear
10:55 AM 57.2 °F - 45.1 °F 64% 29.81 in 10.0 mi SW 4.6 mph - N/A   Clear
11:15 AM 59.5 °F - 45.1 °F 59% 29.81 in 10.0 mi SW 5.8 mph - N/A   Clear
11:35 AM 60.6 °F - 43.5 °F 53% 29.80 in 10.0 mi WNW 6.9 mph - N/A   Clear
11:55 AM 61.9 °F - 42.1 °F 48% 29.80 in 10.0 mi West 12.7 mph - N/A   Clear
12:15 PM 62.6 °F - 41.5 °F 46% 29.80 in 10.0 mi West 6.9 mph - N/A   Clear
12:35 PM 64.0 °F - 36.1 °F 36% 29.80 in 10.0 mi WNW 13.8 mph 24.2 mph N/A   Clear
12:55 PM 64.9 °F - 36.0 °F 34% 29.80 in 10.0 mi WNW 16.1 mph 26.5 mph N/A   Clear
1:15 PM 65.3 °F - 33.6 °F 31% 29.80 in 10.0 mi West 19.6 mph 24.2 mph N/A   Clear
1:40 PM 65.8 °F - 31.1 °F 27% 29.80 in 10.0 mi West 19.6 mph 24.2 mph N/A   Clear
1:55 PM 66.4 °F - 31.1 °F 27% 29.80 in 10.0 mi West 18.4 mph 24.2 mph N/A   Clear
2:15 PM 66.4 °F - 30.6 °F 26% 29.80 in 10.0 mi WNW 15.0 mph 25.3 mph N/A   Clear
2:35 PM 66.7 °F - 29.7 °F 25% 29.80 in 10.0 mi West 19.6 mph 27.6 mph N/A   Clear
2:55 PM 67.1 °F - 29.8 °F 25% 29.80 in 10.0 mi WNW 19.6 mph 25.3 mph N/A   Clear
3:15 PM 67.3 °F - 28.6 °F 23% 29.80 in 10.0 mi WSW 19.6 mph 25.3 mph N/A   Clear
3:40 PM 67.3 °F - 29.8 °F 25% 29.80 in 10.0 mi West 13.8 mph 26.5 mph N/A   Scattered Clouds
3:55 PM 67.1 °F - 30.6 °F 26% 29.80 in 10.0 mi West 17.3 mph 23.0 mph N/A   Scattered Clouds
4:15 PM 66.9 °F - 30.6 °F 26% 29.80 in 10.0 mi WNW 16.1 mph 24.2 mph N/A   Mostly Cloudy
4:35 PM 67.3 °F - 31.1 °F 26% 29.80 in 10.0 mi West 17.3 mph - N/A   Mostly Cloudy
4:55 PM 66.4 °F - 31.1 °F 27% 29.80 in 10.0 mi West 11.5 mph 19.6 mph N/A   Mostly Cloudy
5:15 PM 66.9 °F - 31.1 °F 26% 29.80 in 10.0 mi WNW 15.0 mph 24.2 mph N/A   Scattered Clouds
5:35 PM 67.1 °F - 31.6 °F 27% 29.80 in 10.0 mi WNW 12.7 mph 18.4 mph N/A   Clear
5:55 PM 65.7 °F - 32.0 °F 29% 29.80 in 10.0 mi WNW 12.7 mph 21.9 mph N/A   Scattered Clouds
6:15 PM 66.2 °F - 32.2 °F 28% 29.80 in 10.0 mi WNW 11.5 mph - N/A   Clear
6:35 PM 65.8 °F - 32.9 °F 29% 29.81 in 10.0 mi West 9.2 mph - N/A   Clear
6:55 PM 65.3 °F - 34.0 °F 31% 29.81 in 10.0 mi WNW 9.2 mph - N/A   Clear
7:15 PM 64.8 °F - 33.4 °F 31% 29.81 in 10.0 mi West 9.2 mph - N/A   Clear
7:35 PM 63.1 °F - 34.7 °F 35% 29.81 in 10.0 mi WNW 6.9 mph - N/A   Clear
8:00 PM 61.0 °F - 35.1 °F 38% 29.81 in 10.0 mi West 3.5 mph - N/A   Clear
8:15 PM 60.3 °F - 35.1 °F 39% 29.81 in 10.0 mi Calm Calm - N/A   Clear
8:35 PM 56.8 °F - 36.9 °F 47% 29.81 in 10.0 mi Calm Calm - N/A   Clear
8:55 PM 55.9 °F - 36.3 °F 48% 29.82 in 10.0 mi SSW 3.5 mph - N/A   Clear
9:15 PM 54.1 °F - 38.7 °F 56% 29.83 in 10.0 mi NE 3.5 mph - N/A   Clear
9:35 PM 52.0 °F - 39.6 °F 63% 29.83 in 10.0 mi Calm Calm - N/A   Clear
9:55 PM 51.6 °F - 39.2 °F 63% 29.83 in 10.0 mi Calm Calm - N/A   Clear
10:15 PM 52.2 °F - 40.5 °F 64% 29.84 in 10.0 mi Calm Calm - N/A   Clear
10:35 PM 50.4 °F - 39.6 °F 66% 29.84 in 10.0 mi Calm Calm - N/A   Clear
11:15 PM 48.7 °F - 39.0 °F 69% 29.83 in 10.0 mi Calm Calm - N/A   Clear
11:35 PM 49.1 °F - 40.5 °F 72% 29.84 in 10.0 mi South 3.5 mph - N/A   Clear
11:55 PM 46.0 °F - 39.9 °F 79% 29.84 in 10.0 mi Calm Calm - N/A   Clear